星链-6355 (STARLINK-6355 )

导读

STARLINK-6355是美国太空探索技术公司(SpaceX)星链(Starlink)星座的组网卫星,于2023年7月16日发射升空,是星链互联网卫星星座扩容的一部分。该卫星主要服务于全球高速卫星互联网项目,为偏远地区、海洋以及航空场景提供低延迟宽带接入服务,推进星链全球组网覆盖的进程。

Basic Information
目录编号:
57356
目录名称:
STARLINK-6355
国际标识:
2023-099AE
轨道中心:
EARTH
卫星名称:
星链-6355
卫星全名:
星链-6355 (STARLINK-6355 )
卫星状态:
在轨 (已飞行1147 天)
发射日期:
2023-07-16 UTC
国别 :
美国 (US)
星等 :
--
Orbit Information
数据来源 国际轨道数据 AOE轨道数据
星历时间 2026-09-05T13:19:16+0800
8小时前
查看轨道信息
2026-09-05T02:00:00+0800
20小时前
查看轨道信息
半长轴 6861.202km 6861.176km
偏心率 0.0001365 0.000137
轨道倾角 43.005° 43.005°
近地点辐角 292.901° 292.569°
升交点赤经 308.015° 310.682°
平近点角 67.170° 350.354°
近地点 482.128km 482.099km
远地点 484.002km 483.979km
周期 94.267分钟 94.267分钟
每日圈数 15.275749 15.275835
Detailed Information
固有亮度:
5
最大亮度:
2.5
卫星平台:
Starlink v1.5
覆盖范围:
全球
运营商:
太空探索技术公司
运营商所在国:
美国
制造商(研发单位):
太空探索技术公司
制造商所在国:
美国
使用方式:
暂无
Satellite Introduction
星链(Starlink)计划是由太空探索技术公司(SpaceX)提出的一个巨型低轨卫星互联网星座项目,计划在2019年至2024年间在太空搭建由约1.2万颗卫星组成的“星链”网络,其中1584颗将部署在地球上空550千米处的近地轨道,并从2020年开始工作。该卫星仍在工作。
2D Orbit Map
3D Orbit Map
Orbit Altitude Analysis Chart
Orbit Inclination Analysis Chart
Orbit Comprehensive Analysis Chart
View Comprehensive Chart
Conjunction Data List
Event ID Objects TCA Miss Dist (km) Collision Risk Probability Collision Risk Index (CRI) Action
CDM_260907-123005-735606-711121
2026-09-07T
12:30:49+0000
0.555 km
远距离
9.332663E-5 中风险 0.74
CDM_260907-210805-735606-711121
2026-09-07T
21:08:40+0000
1.474 km
极远距离
3.94849E-6 低风险 0.47
CDM_260907-224205-735606-711121
2026-09-07T
22:42:49+0000
1.610 km
极远距离
3.003469E-6 低风险 0.45
CDM_260901-121804-431605-735623
OBJECT G (44316)
2026-09-01T
12:18:02+0000
1.445 km
极远距离
2.750116E-6 低风险 0.44
CDM_260907-140405-735606-711121
2026-09-07T
14:04:58+0000
1.898 km
极远距离
1.896383E-6 低风险 0.41
CDM_260907-105605-735606-711121
2026-09-07T
10:56:40+0000
2.921 km
极远距离
8.478192E-7 极低风险 0.34